[[{"header":{"parameterUnit":"m.s-1","parameterCategory":2,"la1":30.2991,"la2":30.254,"lo1":-89.0895,"lo2":-89.0444,"dy":0.0017,"dx":0.0017,"nx":28,"ny":28,"refTime":"2023-08-22T21:00:00:Z","depth":"0","parameterNumber":2,"parameterNumberName":"U-component_of_CURRENTS"},"data":[0,0,0,0,0,0,0,0,0,0,0,0,0,0,0,0,0,0,0,0,0,0,0,0,0,0,0,0,0,0,0,0,0,0,0,0,0,0,0,0,0,0,0,0,0,0,0,0,0,0,0,0,0,0,0,0,0,0,0.2298,0.2299,0,0.2346,0.2347,0.2347,0.2343,0.2342,0.2342,0.2341,0.2223,0.222,0.2218,0,0,0,0,0,0,0,0,0,0,0,0,0,0.2277,0.2277,0.2298,0.2299,0.23,0.2346,0.2347,0.2348,0.2343,0.2342,0.2342,0.2341,0.2224,0.2221,0.2218,0,0,0,0,0,0,0,0,0,0,0,0,0,0.2301,0.2277,0.2298,0.2303,0.2304,0.2346,0.2347,0.2348,0.2343,0.2342,0.2341,0.234,0.2225,0.2221,0.2217,0.2215,0,0,0.2206,0.2204,0,0,0,0,0,0,0,0,0.23,0.2302,0.2302,0.2303,0.2304,0.2338,0.2296,0.2295,0.2344,0.2328,0.2341,0.234,0.2247,0.2242,0.2254,0.2209,0.2204,0.2205,0.2203,0.2202,0.2201,0,0,0,0,0,0,0,0.2298,0.23,0.2317,0.2303,0.2304,0.2329,0.2331,0.2297,0.2289,0.2329,0.2329,0.2336,0.2246,0.2258,0.2251,0.2202,0.2206,0.2202,0.22,0.2198,0.2201,0.2203,0,0,0,0,0,0,0.229,0.2298,0.2315,0.2318,0.23,0.233,0.2332,0.2328,0.2293,0.2288,0.2337,0.2336,0.2265,0.2256,0.2247,0.2252,0.2202,0.2198,0.2196,0.2198,0.2201,0.2204,0,0,0,0,0,0,0.229,0.2291,0.2313,0.2311,0.2315,0.2331,0.2327,0.2329,0.2339,0.2301,0.2292,0.2344,0.2264,0.2252,0.2234,0.2246,0.2196,0.2193,0.2196,0.2199,0.2202,0.2255,0,0,0,0,0,0,0.2289,0.229,0.2292,0.231,0.2315,0.2333,0.2328,0.2331,0.2346,0.2344,0.2304,0.2293,0.2262,0.224,0.223,0.224,0.219,0.2193,0.2197,0.2201,0.225,0.226,0.2268,0,0,0,0,0,0.2288,0.2289,0.2291,0.2294,0.2313,0.2334,0.2339,0.2347,0.2347,0.2352,0.234,0.2294,0.2261,0.2239,0.2226,0.2236,0.219,0.2196,0.2201,0.2246,0.2258,0.2267,0,0,0,0,0,0,0.2285,0.2289,0.2292,0.2295,0.2312,0.2333,0.2342,0.2351,0.2351,0.2345,0.231,0.2298,0.2293,0.2267,0.2243,0.2257,0.2223,0.2226,0.2262,0.2272,0.2281,0.2286,0.2187,0,0,0,0,0,0.2285,0.2282,0.2297,0.2302,0.2308,0.2328,0.234,0.2346,0.2348,0.2349,0.2326,0.2312,0.2309,0.229,0.2278,0.227,0.2285,0.2278,0.2287,0.2294,0.2295,0.2345,0.2358,0.2221,0.2221,0.222,0,0,0.2285,0.2289,0.2287,0.2301,0.2314,0.2339,0.2332,0.2348,0.2371,0.2331,0.2345,0.2333,0.2317,0.2322,0.2317,0.2295,0.2348,0.23,0.2306,0.2303,0.2352,0.2365,0.2377,0.2224,0.2223,0.2223,0,0,0.2292,0.2286,0.2292,0.2312,0.2332,0.2344,0.2349,0.2369,0.2375,0.2389,0.2383,0.2387,0.2363,0.2369,0.2367,0.2418,0.2397,0.2412,0.2445,0.2494,0.2506,0.2515,0.2577,0.2591,0.241,0.241,0.2411,0,0.2285,0.2306,0.23,0.2325,0.2347,0.2348,0.2376,0.239,0.2404,0.2416,0.2395,0.2419,0.2393,0.2426,0.2445,0.2434,0.2462,0.2398,0.2504,0.2514,0.2523,0.2583,0.2599,0.2414,0.2413,0.2413,0.2413,0,0.231,0.2334,0.2342,0.2369,0.2389,0.2411,0.2431,0.2446,0.245,0.2465,0.249,0.2479,0.2496,0.2494,0.2475,0.2534,0.2536,0.2512,0.2471,0.254,0.26,0.2615,0.2418,0.2417,0.2416,0.2415,0,0,0.226,0.234,0.2342,0.2374,0.2416,0.243,0.247,0.2504,0.2533,0.2539,0.2583,0.2585,0.2581,0.2582,0.257,0.2599,0.2691,0.2579,0.258,0.2629,0.2817,0.2899,0.2923,0.2682,0.2684,0.2686,0.2841,0,0.2276,0.234,0.2374,0.2431,0.2466,0.2493,0.2531,0.2562,0.258,0.2618,0.2622,0.2651,0.2616,0.2627,0.2656,0.268,0.273,0.2652,0.2751,0.2755,0.281,0.2943,0.2914,0.3057,0.2856,0.2858,0.286,0,0.2281,0.2331,0.2394,0.2475,0.2488,0.252,0.2576,0.2615,0.2669,0.2684,0.2719,0.2726,0.2778,0.2733,0.2826,0.2778,0.2808,0.2822,0.2828,0.2893,0.2866,0.2952,0.3092,0.2884,0.2883,0.2881,0.288,0,0.2246,0.2336,0.2386,0.2415,0.2503,0.2531,0.2572,0.2631,0.2669,0.2735,0.2771,0.2823,0.2861,0.2904,0.2944,0.2892,0.3051,0.2986,0.3096,0.3102,0.3092,0.3094,0.3031,0.307,0.3069,0.3069,0.3068,0,0.2243,0.2282,0.2374,0.2403,0.2454,0.2522,0.2577,0.2621,0.2703,0.2758,0.2804,0.2862,0.2904,0.2991,0.3005,0.3131,0.3117,0.3144,0.3163,0.3115,0.3117,0.2946,0.2864,0.3075,0.3073,0.3072,0.3071,0,0.2193,0.226,0.2319,0.2414,0.2439,0.2473,0.2575,0.2623,0.2705,0.2786,0.2816,0.292,0.305,0.3119,0.3213,0.3235,0.3237,0.3362,0.3318,0.333,0.3233,0.3159,0.3126,0.3032,0.3518,0.3521,0.3524,0,0.2179,0.2205,0.2299,0.2335,0.2377,0.2447,0.2497,0.2597,0.2658,0.2817,0.2857,0.302,0.3138,0.3351,0.3446,0.3575,0.3355,0.3583,0.3481,0.3268,0.3197,0.3038,0.2945,0.3491,0.3493,0.3495,0.3497,0,0.215,0.2174,0.2224,0.2302,0.2356,0.2414,0.2501,0.255,0.2681,0.2781,0.2929,0.3049,0.3303,0.3451,0.3646,0.3689,0.3408,0.3627,0.3404,0.3198,0.3023,0.2926,0.3342,0.3513,0.3511,0.351,0.3509,0.3509,0.2127,0.2143,0.2215,0.2274,0.2334,0.239,0.2412,0.2535,0.2646,0.2792,0.2936,0.3124,0.3348,0.365,0.3661,0.362,0.3568,0.3493,0.3434,0.3298,0.3163,0.3645,0.3834,0.3834,0.3835,0.3835,0.3835,0,0.2142,0.2159,0.2197,0.2267,0.2297,0.2346,0.2419,0.2437,0.2554,0.2753,0.291,0.3209,0.3348,0.345,0.3549,0.3426,0.3235,0.3255,0.2951,0.2878,0.3309,0.3257,0.3333,0.3333,0.3333,0.3334,0.3334,0.3334,0.2168,0.2195,0.2196,0.2225,0.2257,0.226,0.228,0.2328,0.2443,0.266,0.2861,0.3054,0.3236,0.3278,0.3146,0.3061,0.272,0.2696,0.2558,0.2765,0.2777,0.2788,0.2712,0.2673,0.2672,0.2029,0.2024,0.202]},{"header":{"parameterUnit":"m.s-1","parameterCategory":2,"la1":30.2991,"la2":30.254,"lo1":-89.0895,"lo2":-89.0444,"dy":0.0017,"dx":0.0017,"nx":28,"ny":28,"refTime":"2023-08-22T21:00:00:Z","depth":"0","parameterNumber":3,"parameterNumberName":"V-component_of_CURRENTS"},"data":[0,0,0,0,0,0,0,0,0,0,0,0,0,0,0,0,0,0,0,0,0,0,0,0,0,0,0,0,0,0,0,0,0,0,0,0,0,0,0,0,0,0,0,0,0,0,0,0,0,0,0,0,0,0,0,0,0,0,-0.0986,-0.0987,0,-0.1098,-0.11,-0.1101,-0.1208,-0.1209,-0.121,-0.1211,-0.1321,-0.1323,-0.1325,0,0,0,0,0,0,0,0,0,0,0,0,0,-0.0966,-0.0965,-0.0986,-0.0987,-0.0988,-0.1098,-0.11,-0.1101,-0.1208,-0.1209,-0.121,-0.1211,-0.132,-0.1322,-0.1325,0,0,0,0,0,0,0,0,0,0,0,0,0,-0.1019,-0.0965,-0.0986,-0.1052,-0.1058,-0.1097,-0.11,-0.1102,-0.1207,-0.1209,-0.121,-0.1212,-0.1319,-0.1322,-0.1325,-0.1314,0,0,-0.1334,-0.1336,0,0,0,0,0,0,0,0,-0.1016,-0.102,-0.1041,-0.1047,-0.1055,-0.1137,-0.1133,-0.1171,-0.1207,-0.1155,-0.1211,-0.1213,-0.1255,-0.1264,-0.1287,-0.1319,-0.1323,-0.1335,-0.1336,-0.1338,-0.1339,0,0,0,0,0,0,0,-0.1012,-0.1017,-0.1035,-0.1042,-0.105,-0.111,-0.1119,-0.1141,-0.1198,-0.116,-0.1167,-0.1172,-0.126,-0.1284,-0.129,-0.1325,-0.1335,-0.1337,-0.1339,-0.134,-0.1361,-0.136,0,0,0,0,0,0,-0.0983,-0.1012,-0.1031,-0.1038,-0.1034,-0.1108,-0.1118,-0.1112,-0.1199,-0.1212,-0.1171,-0.1177,-0.1278,-0.1287,-0.1295,-0.1305,-0.1338,-0.134,-0.1342,-0.1363,-0.1361,-0.136,0,0,0,0,0,0,-0.0982,-0.0983,-0.1026,-0.1026,-0.1035,-0.1106,-0.1099,-0.1114,-0.1132,-0.1206,-0.1221,-0.1173,-0.128,-0.129,-0.1316,-0.1309,-0.1342,-0.1345,-0.1364,-0.1362,-0.136,-0.1312,0,0,0,0,0,0,-0.0981,-0.0982,-0.0974,-0.1023,-0.1033,-0.1042,-0.1098,-0.1115,-0.1132,-0.114,-0.1212,-0.1225,-0.1282,-0.1311,-0.1319,-0.1314,-0.1347,-0.1366,-0.1363,-0.1361,-0.1315,-0.1309,-0.1303,0,0,0,0,0,-0.0979,-0.0962,-0.0972,-0.0975,-0.1017,-0.104,-0.1052,-0.1111,-0.113,-0.1134,-0.1185,-0.1223,-0.1302,-0.1313,-0.1322,-0.1318,-0.1367,-0.1364,-0.1361,-0.1318,-0.131,-0.1303,0,0,0,0,0,0,-0.0955,-0.0972,-0.0985,-0.0975,-0.0999,-0.1057,-0.1067,-0.1092,-0.1135,-0.1142,-0.1211,-0.1227,-0.1248,-0.1276,-0.1286,-0.1313,-0.1338,-0.1337,-0.1301,-0.1295,-0.1289,-0.1257,-0.1349,0,0,0,0,0,-0.0938,-0.0925,-0.0957,-0.0945,-0.0955,-0.1001,-0.1018,-0.1048,-0.1089,-0.111,-0.1159,-0.1204,-0.1242,-0.1263,-0.13,-0.1309,-0.1321,-0.1308,-0.1302,-0.1297,-0.1275,-0.1292,-0.1286,-0.1351,-0.1351,-0.1351,0,0,-0.0921,-0.093,-0.0922,-0.0938,-0.0964,-0.0966,-0.1017,-0.1027,-0.1036,-0.1111,-0.1138,-0.1183,-0.1238,-0.1265,-0.1275,-0.1289,-0.1283,-0.1293,-0.1289,-0.1269,-0.1289,-0.1283,-0.1277,-0.1349,-0.1349,-0.1349,0,0,-0.0886,-0.0889,-0.0873,-0.0882,-0.0903,-0.0932,-0.0923,-0.0966,-0.0999,-0.1018,-0.108,-0.1113,-0.1165,-0.1214,-0.1243,-0.1213,-0.125,-0.1222,-0.1173,-0.119,-0.1186,-0.1181,-0.1185,-0.1182,-0.1221,-0.1221,-0.1221,0,-0.0871,-0.0851,-0.0873,-0.0861,-0.0863,-0.0904,-0.089,-0.0923,-0.097,-0.0989,-0.1016,-0.1091,-0.1142,-0.1177,-0.1177,-0.1201,-0.121,-0.1203,-0.1184,-0.118,-0.1176,-0.1181,-0.1178,-0.1219,-0.1219,-0.1219,-0.1219,0,-0.083,-0.0812,-0.0801,-0.0797,-0.0799,-0.0791,-0.0826,-0.0841,-0.0874,-0.0911,-0.0947,-0.1017,-0.1061,-0.1085,-0.1127,-0.1129,-0.1142,-0.1176,-0.1204,-0.1167,-0.1175,-0.1172,-0.1215,-0.1216,-0.1217,-0.1217,0,0,-0.0801,-0.078,-0.0775,-0.076,-0.0762,-0.0761,-0.0764,-0.079,-0.0794,-0.0844,-0.0853,-0.0928,-0.0961,-0.0992,-0.105,-0.1066,-0.106,-0.1102,-0.1104,-0.1108,-0.1084,-0.1039,-0.1033,-0.1095,-0.1094,-0.1094,-0.1098,0,-0.0769,-0.0734,-0.0729,-0.0688,-0.0673,-0.0692,-0.0691,-0.0712,-0.075,-0.077,-0.0837,-0.0868,-0.093,-0.0949,-0.0975,-0.1036,-0.1051,-0.1054,-0.1115,-0.1116,-0.1085,-0.1027,-0.0918,-0.0907,-0.1096,-0.1096,-0.1096,0,-0.0733,-0.0715,-0.0673,-0.0637,-0.0632,-0.0612,-0.0613,-0.0616,-0.0654,-0.0681,-0.0716,-0.0771,-0.0806,-0.0861,-0.0931,-0.0929,-0.0991,-0.1039,-0.1041,-0.1009,-0.1066,-0.0975,-0.0896,-0.1036,-0.1092,-0.1093,-0.1093,0,-0.0711,-0.0671,-0.0637,-0.0622,-0.0594,-0.0579,-0.0571,-0.0591,-0.0586,-0.0618,-0.0611,-0.0677,-0.0693,-0.0773,-0.0868,-0.0901,-0.093,-0.0999,-0.1016,-0.1015,-0.0934,-0.0926,-0.0996,-0.1039,-0.1039,-0.1039,-0.1039,0,-0.0676,-0.0642,-0.0623,-0.0598,-0.0552,-0.0543,-0.0504,-0.0514,-0.0509,-0.0473,-0.0557,-0.0541,-0.0668,-0.0711,-0.0817,-0.088,-0.0894,-0.0977,-0.1002,-0.0913,-0.0903,-0.1033,-0.1138,-0.1039,-0.1039,-0.1039,-0.1039,0,-0.0639,-0.063,-0.058,-0.0548,-0.0534,-0.0497,-0.0443,-0.0411,-0.0421,-0.0371,-0.0369,-0.0423,-0.0462,-0.0582,-0.0697,-0.0795,-0.093,-0.091,-0.0783,-0.0792,-0.0945,-0.105,-0.1116,-0.1179,-0.0927,-0.0926,-0.0925,0,-0.0615,-0.059,-0.0541,-0.0494,-0.047,-0.0419,-0.0372,-0.0368,-0.0317,-0.029,-0.0245,-0.0278,-0.0268,-0.0407,-0.0557,-0.0695,-0.0866,-0.0727,-0.0776,-0.0906,-0.1044,-0.1121,-0.1177,-0.0657,-0.0654,-0.0651,-0.0649,0,-0.0558,-0.0544,-0.0496,-0.041,-0.0348,-0.028,-0.0211,-0.0162,-0.0128,-0.0064,0.0016,0.0023,-0.0107,-0.0159,-0.0357,-0.0492,-0.0788,-0.068,-0.0846,-0.0845,-0.0899,-0.0986,-0.0712,-0.0626,-0.0629,-0.063,-0.0632,-0.0632,-0.0495,-0.045,-0.038,-0.0284,-0.0218,-0.0112,-0.0015,0.0072,0.0194,0.0354,0.0292,0.0424,0.0241,0.0005,-0.0245,-0.0568,-0.0653,-0.0663,-0.0781,-0.0849,-0.0897,-0.0559,-0.0488,-0.049,-0.0491,-0.0492,-0.0493,0,-0.0357,-0.0316,-0.0247,-0.0117,-0.0005,-0.0004,0.0131,0.026,0.0462,0.0614,0.0742,0.0852,0.0584,0.0223,-0.0232,-0.0574,-0.0745,-0.0778,-0.0877,-0.0935,-0.0641,-0.0616,-0.0529,-0.0529,-0.0528,-0.0528,-0.0528,-0.0528,-0.0271,-0.0161,-0.0132,0.0074,0.0161,0.0336,0.0435,0.0608,0.0765,0.1082,0.1289,0.1398,0.1178,0.0174,-0.0566,-0.0773,-0.1056,-0.1065,-0.128,-0.1098,-0.1097,-0.1096,-0.1098,-0.1112,-0.1113,-0.1478,-0.1482,-0.1485]}],[{"header":{"parameterUnit":"m.s-1","parameterCategory":2,"la1":30.2991,"la2":30.254,"lo1":-89.0895,"lo2":-89.0444,"dy":0.0017,"dx":0.0017,"nx":28,"ny":28,"refTime":"2023-08-22T21:00:00:Z","depth":"2","parameterNumber":2,"parameterNumberName":"U-component_of_CURRENTS"},"data":[0,0,0,0,0,0,0,0,0,0,0,0,0,0,0,0,0,0,0,0,0,0,0,0,0,0,0,0,0,0,0,0,0,0,0,0,0,0,0,0,0,0,0,0,0,0,0,0,0,0,0,0,0,0,0,0,0,0,0.2936,0.2936,0,0.2938,0.2938,0.2938,0.2887,0.2886,0.2885,0.2884,0.2843,0.2843,0.2843,0,0,0,0,0,0,0,0,0,0,0,0,0,0.2882,0.2884,0.2936,0.2936,0.2936,0.2938,0.2938,0.2938,0.2887,0.2886,0.2884,0.2883,0.2843,0.2843,0.2843,0,0,0,0,0,0,0,0,0,0,0,0,0,0.2895,0.2884,0.2936,0.2913,0.2911,0.2938,0.2938,0.2938,0.2888,0.2886,0.2884,0.2882,0.2843,0.2843,0.2843,0.2878,0,0,0.2843,0.2843,0,0,0,0,0,0,0,0,0.2895,0.2897,0.2916,0.2915,0.2913,0.2912,0.2904,0.2916,0.2888,0.2894,0.2884,0.2882,0.2865,0.2863,0.2865,0.2876,0.2874,0.2843,0.2843,0.2843,0.2843,0,0,0,0,0,0,0,0.2894,0.2897,0.2935,0.2917,0.2914,0.2901,0.29,0.2906,0.2887,0.2894,0.289,0.2895,0.2863,0.2865,0.2863,0.2873,0.2843,0.2843,0.2843,0.2843,0.2882,0.2883,0,0,0,0,0,0,0.29,0.2896,0.2935,0.2935,0.2901,0.2903,0.2903,0.2912,0.2888,0.2883,0.2896,0.2892,0.2866,0.2863,0.2861,0.2855,0.2843,0.2843,0.2843,0.2881,0.2882,0.2884,0,0,0,0,0,0,0.2899,0.2904,0.2935,0.2916,0.292,0.2906,0.2917,0.2913,0.29,0.289,0.2884,0.2885,0.2864,0.2861,0.2837,0.2855,0.2843,0.2843,0.288,0.2881,0.2883,0.2872,0,0,0,0,0,0,0.2898,0.2904,0.2899,0.2917,0.2921,0.2926,0.2919,0.2915,0.2907,0.2901,0.2879,0.2874,0.2863,0.2837,0.2837,0.2855,0.2843,0.2879,0.2881,0.2882,0.2871,0.2874,0.2875,0,0,0,0,0,0.2896,0.2878,0.2899,0.2903,0.292,0.2926,0.2925,0.2909,0.2908,0.2892,0.2875,0.2874,0.2851,0.2837,0.2837,0.2855,0.2878,0.288,0.2882,0.2871,0.2873,0.2875,0,0,0,0,0,0,0.2835,0.2873,0.2895,0.2887,0.2904,0.2917,0.2895,0.2909,0.2888,0.2875,0.2871,0.2864,0.2869,0.2861,0.2846,0.2877,0.2873,0.2875,0.2864,0.2866,0.2868,0.2869,0.2843,0,0,0,0,0,0.2832,0.2838,0.2873,0.2868,0.2872,0.2893,0.2891,0.2892,0.2886,0.2875,0.2876,0.2875,0.2886,0.2868,0.2883,0.2877,0.2906,0.2896,0.2898,0.29,0.2903,0.2956,0.2963,0.2891,0.2891,0.2891,0,0,0.281,0.2831,0.2834,0.2858,0.2865,0.2887,0.2884,0.2876,0.2903,0.2876,0.289,0.2889,0.2892,0.2895,0.2896,0.2878,0.2939,0.2903,0.2903,0.2906,0.2959,0.2966,0.2972,0.2893,0.2893,0.2892,0,0,0.2774,0.2787,0.2785,0.2811,0.2831,0.2852,0.2854,0.2878,0.2884,0.2894,0.2904,0.2896,0.2904,0.2909,0.2913,0.2934,0.2965,0.2952,0.2935,0.2987,0.2993,0.2998,0.3055,0.3066,0.293,0.293,0.293,0,0.2746,0.2769,0.2781,0.2799,0.2827,0.2844,0.2867,0.2884,0.2904,0.2921,0.2889,0.2931,0.2914,0.2945,0.2934,0.2938,0.2976,0.2919,0.2988,0.2994,0.3,0.3057,0.3069,0.293,0.293,0.293,0.293,0,0.2728,0.2757,0.2751,0.2803,0.2823,0.2838,0.2885,0.2905,0.2916,0.2941,0.297,0.2946,0.2966,0.2964,0.2936,0.2985,0.3004,0.3001,0.2978,0.3007,0.3065,0.3078,0.293,0.293,0.293,0.293,0,0,0.2652,0.273,0.2732,0.2777,0.2837,0.2853,0.2902,0.2953,0.2985,0.299,0.3027,0.3018,0.3009,0.3014,0.3004,0.3008,0.3061,0.3003,0.3005,0.3051,0.3188,0.3128,0.3137,0.3071,0.3073,0.3074,0.3215,0,0.2644,0.2697,0.2736,0.2797,0.2837,0.2891,0.2935,0.2983,0.301,0.3045,0.3041,0.3054,0.3035,0.3014,0.3035,0.3063,0.3093,0.3024,0.3161,0.3165,0.3101,0.3148,0.2847,0.294,0.3228,0.323,0.3231,0,0.2624,0.2673,0.2733,0.2831,0.2846,0.2876,0.2958,0.2998,0.3058,0.3069,0.3095,0.3103,0.3126,0.3081,0.3178,0.3139,0.3166,0.3176,0.3183,0.3137,0.3128,0.2957,0.2952,0.3253,0.3251,0.3249,0.3248,0,0.259,0.2673,0.2727,0.2764,0.2862,0.2887,0.2924,0.2993,0.303,0.3073,0.3092,0.3149,0.3162,0.3216,0.3251,0.3218,0.3356,0.3323,0.3312,0.3309,0.3084,0.3057,0.34,0.34,0.3399,0.3399,0.3399,0,0.2589,0.2631,0.2709,0.2744,0.2785,0.2855,0.2892,0.2939,0.3001,0.3047,0.309,0.3133,0.3191,0.3277,0.33,0.3363,0.3421,0.3327,0.3342,0.3073,0.3045,0.3334,0.3325,0.3404,0.3403,0.3402,0.3401,0,0.2553,0.2614,0.267,0.2754,0.2772,0.2791,0.2857,0.2889,0.2954,0.302,0.3027,0.314,0.3245,0.3332,0.3424,0.3421,0.3473,0.3482,0.3165,0.3139,0.338,0.3369,0.3478,0.3477,0.3476,0.3476,0.3475,0,0.2548,0.2573,0.2646,0.2664,0.2694,0.273,0.2756,0.2834,0.2882,0.3026,0.3059,0.3181,0.3218,0.336,0.3352,0.3407,0.3514,0.32,0.3063,0.3384,0.339,0.3379,0.3369,0.2772,0.2765,0.276,0.2756,0,0.2516,0.2529,0.2566,0.261,0.2633,0.2664,0.2715,0.2742,0.2856,0.2882,0.2963,0.2987,0.3122,0.3013,0.3105,0.3106,0.3157,0.3099,0.353,0.2796,0.2729,0.273,0.2741,0.271,0.2715,0.2718,0.2721,0.2723,0.2456,0.2465,0.2505,0.2535,0.2573,0.259,0.2581,0.2606,0.2609,0.2609,0.2765,0.2678,0.2753,0.2665,0.267,0.2706,0.2908,0.2811,0.2822,0.284,0.273,0.2664,0.2615,0.2619,0.2622,0.2625,0.2628,0,0.235,0.2391,0.2433,0.2467,0.2477,0.2528,0.2555,0.2458,0.2374,0.2359,0.2326,0.2101,0.2049,0.2185,0.2122,0.2184,0.2114,0.2166,0.2035,0.2082,0.2124,0.1973,0.166,0.1657,0.1655,0.1652,0,0,0.2303,0.2286,0.2323,0.2336,0.2386,0.234,0.2326,0.2116,0.2031,0.1797,0.1697,0.1794,0.1974,0.1694,0.1753,0.1689,0.1851,0.1633,0.2403,0.2284,0.2321,0.2495,0.2317,0,0,0,0,0]},{"header":{"parameterUnit":"m.s-1","parameterCategory":2,"la1":30.2991,"la2":30.254,"lo1":-89.0895,"lo2":-89.0444,"dy":0.0017,"dx":0.0017,"nx":28,"ny":28,"refTime":"2023-08-22T21:00:00:Z","depth":"2","parameterNumber":3,"parameterNumberName":"V-component_of_CURRENTS"},"data":[0,0,0,0,0,0,0,0,0,0,0,0,0,0,0,0,0,0,0,0,0,0,0,0,0,0,0,0,0,0,0,0,0,0,0,0,0,0,0,0,0,0,0,0,0,0,0,0,0,0,0,0,0,0,0,0,0,0,0.0631,0.063,0,0.0493,0.0492,0.049,0.0397,0.0397,0.0396,0.0396,0.0191,0.0186,0.0181,0,0,0,0,0,0,0,0,0,0,0,0,0,0.0669,0.067,0.0631,0.063,0.0628,0.0494,0.0492,0.049,0.0397,0.0397,0.0396,0.0395,0.0193,0.0187,0.0181,0,0,0,0,0,0,0,0,0,0,0,0,0,0.0603,0.067,0.0631,0.0567,0.056,0.0494,0.0492,0.0489,0.0397,0.0397,0.0396,0.0395,0.0195,0.0187,0.018,0.015,0,0,0.0157,0.0154,0,0,0,0,0,0,0,0,0.0607,0.0602,0.0578,0.0571,0.0563,0.0463,0.043,0.0373,0.0398,0.0458,0.0396,0.0395,0.0277,0.0263,0.0238,0.014,0.0131,0.0157,0.0152,0.0149,0.0147,0,0,0,0,0,0,0,0.0612,0.0606,0.0575,0.0576,0.0567,0.0495,0.0486,0.0418,0.0371,0.0452,0.0446,0.0433,0.0272,0.0245,0.0232,0.0128,0.0157,0.015,0.0146,0.0143,-0.0023,-0.0023,0,0,0,0,0,0,0.0641,0.0612,0.058,0.0571,0.0585,0.0496,0.0485,0.0495,0.0373,0.0355,0.0434,0.0429,0.0258,0.0241,0.0224,0.0119,0.0149,0.0142,0.0138,-0.0023,-0.0023,-0.0023,0,0,0,0,0,0,0.0643,0.064,0.0585,0.0588,0.0576,0.0497,0.0507,0.0492,0.0432,0.036,0.034,0.0385,0.0257,0.0235,0.0125,0.0113,0.0139,0.0132,-0.0023,-0.0023,-0.0023,-0.0051,0,0,0,0,0,0,0.0645,0.0642,0.0634,0.0591,0.0577,0.0538,0.0508,0.049,0.0428,0.042,0.0312,0.0294,0.0255,0.0136,0.0118,0.0103,0.0126,-0.0024,-0.0023,-0.0023,-0.005,-0.0052,-0.0053,0,0,0,0,0,0.0647,0.065,0.0635,0.0629,0.0578,0.0538,0.0523,0.0462,0.0426,0.0403,0.0313,0.0296,0.0126,0.0128,0.0107,0.009,-0.0024,-0.0023,-0.0023,-0.0049,-0.0052,-0.0053,0,0,0,0,0,0,0.0654,0.064,0.0623,0.0619,0.0576,0.0522,0.0489,0.0446,0.0357,0.0337,0.0261,0.0236,0.0152,0.0124,0.0129,0.0052,0.0063,0.0059,0.0051,0.0048,0.0047,0.0063,0.012,0,0,0,0,0,0.0658,0.0659,0.0626,0.0616,0.06,0.0536,0.0501,0.0466,0.0395,0.0354,0.028,0.021,0.0144,0.0093,0.0044,-0.0031,-0.0035,-0.0039,-0.0041,-0.0042,-0.0039,-0.007,-0.0075,-0.0023,-0.0023,-0.0023,0,0,0.0652,0.0646,0.064,0.0616,0.0578,0.0564,0.0512,0.0466,0.0445,0.0345,0.0272,0.0193,0.0125,0.0054,0.0017,0.0017,-0.0056,-0.0042,-0.0044,-0.0039,-0.0071,-0.0076,-0.0081,-0.0023,-0.0023,-0.0023,0,0,0.0652,0.0643,0.0641,0.0622,0.0578,0.0555,0.0539,0.0476,0.0434,0.0356,0.0286,0.0184,0.0095,0.003,-0.001,-0.0051,-0.0058,-0.005,-0.0066,-0.0097,-0.0102,-0.0106,-0.0108,-0.0113,-0.0059,-0.0059,-0.0059,0,0.0637,0.0657,0.0626,0.0626,0.0622,0.0557,0.0559,0.0511,0.0414,0.0379,0.0341,0.017,0.0092,-0.0008,-0.0032,-0.0058,-0.0065,-0.0062,-0.0101,-0.0106,-0.011,-0.0111,-0.0115,-0.006,-0.006,-0.006,-0.006,0,0.0646,0.0656,0.0654,0.0653,0.0635,0.0629,0.0588,0.0542,0.0485,0.0435,0.032,0.0187,0.0087,0.0046,-0.0024,-0.0098,-0.0089,-0.0097,-0.0101,-0.0117,-0.0116,-0.012,-0.0062,-0.0061,-0.0061,-0.0061,0,0,0.0642,0.0661,0.0659,0.0683,0.0663,0.066,0.0629,0.0592,0.0564,0.0446,0.039,0.0221,0.0129,0.0077,-0.0032,-0.0096,-0.0158,-0.0124,-0.0125,-0.0132,-0.0208,-0.0167,-0.0167,-0.018,-0.0181,-0.0182,-0.0192,0,0.066,0.0698,0.0694,0.0728,0.0757,0.0718,0.0704,0.0654,0.0588,0.0516,0.0364,0.0248,0.0152,0.005,-0.0017,-0.0105,-0.0171,-0.0152,-0.0184,-0.0184,-0.0153,-0.0172,-0.0167,-0.0173,-0.0197,-0.0197,-0.0198,0,0.068,0.0716,0.0759,0.0809,0.0813,0.0808,0.0794,0.0764,0.0657,0.059,0.0451,0.0323,0.0172,0.0086,-0.0052,-0.0033,-0.0133,-0.0204,-0.0205,-0.0159,-0.0152,-0.0162,-0.018,-0.0205,-0.0204,-0.0204,-0.0203,0,0.0731,0.0772,0.0823,0.0837,0.086,0.0855,0.0844,0.0772,0.0746,0.0592,0.0545,0.0375,0.0258,0.0144,-0.002,-0.0046,-0.0135,-0.0171,-0.0228,-0.0225,-0.0221,-0.0215,-0.0291,-0.0291,-0.0291,-0.0291,-0.0291,0,0.079,0.083,0.0845,0.0876,0.092,0.0903,0.0902,0.0855,0.0774,0.0752,0.0561,0.0506,0.0256,0.0162,0.0034,-0.0072,-0.0081,-0.0228,-0.0231,-0.0227,-0.0221,-0.025,-0.0245,-0.0291,-0.0291,-0.0291,-0.0291,0,0.0844,0.0855,0.0919,0.0945,0.0947,0.0966,0.0947,0.0942,0.0854,0.0815,0.0747,0.059,0.0481,0.0286,0.0097,-0.0004,-0.0118,-0.0178,-0.0143,-0.0142,-0.0201,-0.0198,-0.0222,-0.022,-0.0219,-0.0218,-0.0218,0,0.0882,0.092,0.0963,0.0988,0.0994,0.1007,0.1017,0.0964,0.0961,0.0897,0.0897,0.0736,0.0691,0.0484,0.0213,0.0018,-0.0061,-0.0129,-0.0198,-0.0197,-0.0198,-0.0195,-0.0193,-0.0202,-0.0202,-0.0201,-0.02,0,0.0952,0.0951,0.0993,0.1043,0.1068,0.1109,0.1116,0.1147,0.1099,0.1114,0.1147,0.1109,0.0839,0.0618,0.0281,0.0146,-0.0083,-0.0119,-0.0135,-0.0209,-0.0177,-0.0178,-0.0177,-0.0195,-0.0195,-0.0196,-0.0196,-0.0196,0.0977,0.1014,0.1046,0.1112,0.1135,0.1202,0.1261,0.1309,0.138,0.1392,0.1359,0.1304,0.0981,0.0563,0.0299,-0.003,-0.0019,-0.0147,-0.0151,-0.0155,-0.014,-0.0106,-0.0106,-0.0106,-0.0106,-0.0106,-0.0107,0,0.1018,0.1058,0.1112,0.1178,0.1245,0.1222,0.1322,0.1403,0.1553,0.153,0.1553,0.1261,0.0994,0.0633,0.0148,-0.01,-0.0157,-0.0176,-0.0215,-0.0217,-0.022,-0.0211,-0.0196,-0.0197,-0.0198,-0.0199,0,0,0.1017,0.1097,0.1144,0.1269,0.1301,0.1402,0.1481,0.1595,0.1631,0.1652,0.1563,0.1442,0.1046,0.0678,0.0324,0.0049,-0.0024,0.0005,0.0108,0.0102,0.0102,-0.0167,-0.015,0,0,0,0,0]}],[{"header":{"parameterUnit":"m.s-1","parameterCategory":2,"la1":30.2991,"la2":30.254,"lo1":-89.0895,"lo2":-89.0444,"dy":0.0017,"dx":0.0017,"nx":28,"ny":28,"refTime":"2023-08-22T21:00:00:Z","depth":"4","parameterNumber":2,"parameterNumberName":"U-component_of_CURRENTS"},"data":[0,0,0,0,0,0,0,0,0,0,0,0,0,0,0,0,0,0,0,0,0,0,0,0,0,0,0,0,0,0,0,0,0,0,0,0,0,0,0,0,0,0,0,0,0,0,0,0,0,0,0,0,0,0,0,0,0,0,0.0958,0.0959,0,0.1013,0.1014,0.1014,0.1039,0.104,0.104,0.104,0.1133,0.1135,0.1137,0,0,0,0,0,0,0,0,0,0,0,0,0,0.0857,0.0859,0.0958,0.0959,0.096,0.1013,0.1014,0.1014,0.1039,0.104,0.104,0.1041,0.1132,0.1135,0.1138,0,0,0,0,0,0,0,0,0,0,0,0,0,0.0902,0.0859,0.0958,0.0982,0.0985,0.1013,0.1014,0.1014,0.1039,0.104,0.104,0.1041,0.1132,0.1135,0.1138,0.1149,0,0,0.1148,0.1149,0,0,0,0,0,0,0,0,0.0899,0.0905,0.0977,0.098,0.0984,0.1024,0.1013,0.1062,0.1039,0.1014,0.104,0.1041,0.1102,0.1108,0.1111,0.1153,0.1157,0.1148,0.115,0.1152,0.1153,0,0,0,0,0,0,0,0.0896,0.0903,0.0976,0.0978,0.0982,0.0985,0.0991,0.1022,0.1053,0.1017,0.102,0.1032,0.1104,0.1108,0.1114,0.1158,0.1148,0.1151,0.1153,0.1154,0.1276,0.1278,0,0,0,0,0,0,0.0898,0.09,0.0974,0.0978,0.0946,0.0987,0.0994,0.1007,0.1052,0.106,0.1032,0.1033,0.1102,0.111,0.1117,0.1209,0.1152,0.1155,0.1157,0.1275,0.1277,0.1278,0,0,0,0,0,0,0.0896,0.0904,0.0972,0.0943,0.0952,0.0988,0.1003,0.1008,0.1042,0.1063,0.1071,0.1064,0.1103,0.1113,0.1167,0.121,0.1156,0.1159,0.1274,0.1276,0.1277,0.1344,0,0,0,0,0,0,0.0892,0.0903,0.0918,0.0943,0.0954,0.1009,0.1003,0.1009,0.1049,0.1052,0.1094,0.1101,0.1104,0.1162,0.117,0.1214,0.1162,0.1272,0.1274,0.1277,0.134,0.1348,0.1355,0,0,0,0,0,0.0889,0.0899,0.0918,0.0928,0.0972,0.101,0.1016,0.1039,0.1051,0.1071,0.1098,0.1101,0.1183,0.1166,0.1175,0.1221,0.1271,0.1274,0.1277,0.1337,0.1347,0.1355,0,0,0,0,0,0,0.0868,0.0904,0.0925,0.0949,0.0991,0.1017,0.1044,0.1058,0.1095,0.1111,0.1121,0.113,0.1194,0.1195,0.1176,0.126,0.1226,0.1231,0.1269,0.1279,0.1286,0.1332,0.1164,0,0,0,0,0,0.0871,0.0882,0.0932,0.0952,0.0987,0.1024,0.1046,0.1067,0.11,0.1117,0.115,0.118,0.1208,0.1234,0.1259,0.131,0.1311,0.1342,0.135,0.1356,0.1399,0.1411,0.1424,0.1288,0.1288,0.1287,0,0,0.0864,0.0889,0.0895,0.0948,0.099,0.1027,0.1039,0.109,0.1121,0.1123,0.119,0.1214,0.1226,0.128,0.1309,0.1292,0.1391,0.136,0.1365,0.1405,0.1416,0.1429,0.1441,0.129,0.1289,0.1289,0,0,0.0851,0.0897,0.0907,0.0941,0.101,0.1047,0.1071,0.1132,0.1171,0.1231,0.1238,0.1282,0.1339,0.1348,0.1358,0.1419,0.1429,0.1442,0.1523,0.1534,0.1545,0.1556,0.1558,0.1568,0.1445,0.1446,0.1446,0,0.0846,0.0878,0.0918,0.0941,0.0988,0.1061,0.1105,0.1143,0.1209,0.1256,0.1264,0.135,0.1362,0.141,0.1454,0.1437,0.1461,0.1486,0.1544,0.1555,0.1564,0.1564,0.1574,0.1449,0.1449,0.1448,0.1448,0,0.0847,0.0877,0.09,0.0958,0.1004,0.1066,0.1137,0.1202,0.1272,0.1311,0.1405,0.1423,0.1475,0.1486,0.1508,0.159,0.1589,0.1549,0.1524,0.1582,0.1577,0.1587,0.1454,0.1453,0.1452,0.1451,0,0,0.0835,0.0893,0.0904,0.0935,0.1037,0.1072,0.1158,0.1265,0.1322,0.1399,0.1475,0.1543,0.1583,0.1599,0.1615,0.1658,0.174,0.1677,0.1676,0.1684,0.1795,0.165,0.1646,0.1735,0.1737,0.1739,0.1758,0,0.0852,0.0889,0.0927,0.0987,0.1035,0.1127,0.1194,0.1281,0.1374,0.1459,0.1516,0.1589,0.161,0.1659,0.1706,0.1735,0.1776,0.1741,0.1736,0.1736,0.1603,0.1655,0.1747,0.1765,0.1767,0.1769,0.177,0,0.086,0.0889,0.0954,0.1024,0.1061,0.1104,0.1256,0.1323,0.1448,0.1522,0.1612,0.1661,0.1754,0.1752,0.1831,0.1827,0.1851,0.186,0.1858,0.1718,0.161,0.1698,0.1787,0.1785,0.1784,0.1783,0.1782,0,0.0849,0.091,0.0975,0.0999,0.109,0.1151,0.1228,0.1352,0.1425,0.1578,0.1629,0.1734,0.1777,0.1842,0.1877,0.1889,0.1943,0.1912,0.1792,0.178,0.1875,0.1864,0.1978,0.1978,0.1978,0.1978,0.1978,0,0.0859,0.0897,0.097,0.0995,0.1073,0.1146,0.1252,0.1343,0.1466,0.1538,0.1662,0.1705,0.1821,0.1853,0.1899,0.1863,0.1934,0.1836,0.1786,0.1898,0.1889,0.188,0.1869,0.1978,0.1978,0.1978,0.1978,0,0.0822,0.0882,0.0932,0.1028,0.1065,0.112,0.1245,0.13,0.1435,0.1529,0.1584,0.1704,0.1767,0.182,0.1896,0.1837,0.1841,0.1807,0.1928,0.1878,0.1677,0.1669,0.1695,0.169,0.1686,0.1683,0.168,0,0.0805,0.0832,0.093,0.0958,0.1005,0.1094,0.1149,0.129,0.1348,0.15,0.1523,0.1628,0.1698,0.1657,0.1746,0.1773,0.1758,0.1725,0.1737,0.1706,0.1655,0.1652,0.165,0.1674,0.1673,0.1672,0.1671,0,0.0765,0.0812,0.0856,0.0911,0.0966,0.1011,0.11,0.1129,0.1287,0.1398,0.1443,0.1484,0.1528,0.1587,0.16,0.1622,0.1732,0.1684,0.1693,0.1704,0.168,0.1633,0.1635,0.1657,0.1659,0.166,0.1661,0,0.0739,0.0748,0.0811,0.0855,0.0901,0.0909,0.0969,0.1029,0.1106,0.1279,0.1285,0.1396,0.1508,0.1506,0.1523,0.1527,0.1531,0.1474,0.1494,0.151,0.1443,0.1385,0.1249,0,0,0,0,0,0.0705,0.0705,0.074,0.077,0.08,0.0834,0.0923,0.0988,0.1128,0.1124,0.1211,0.1263,0.1307,0.1361,0.1337,0.1454,0.1532,0.1416,0.1475,0.158,0.1596,0.1534,0,0,0,0,0,0,0.0677,0.0703,0.0721,0.0691,0.0687,0.0711,0.0764,0.0855,0.0874,0.1021,0.106,0.1164,0.1237,0.1311,0.1307,0.1324,0.1328,0.1495,0.1491,0.1571,0.1585,0.1598,0.1541,0,0,0,0,0]},{"header":{"parameterUnit":"m.s-1","parameterCategory":2,"la1":30.2991,"la2":30.254,"lo1":-89.0895,"lo2":-89.0444,"dy":0.0017,"dx":0.0017,"nx":28,"ny":28,"refTime":"2023-08-22T21:00:00:Z","depth":"4","parameterNumber":3,"parameterNumberName":"V-component_of_CURRENTS"},"data":[0,0,0,0,0,0,0,0,0,0,0,0,0,0,0,0,0,0,0,0,0,0,0,0,0,0,0,0,0,0,0,0,0,0,0,0,0,0,0,0,0,0,0,0,0,0,0,0,0,0,0,0,0,0,0,0,0,0,0.0346,0.0346,0,0.0324,0.0323,0.0323,0.0305,0.0305,0.0305,0.0305,0.0264,0.0263,0.0262,0,0,0,0,0,0,0,0,0,0,0,0,0,0.035,0.035,0.0346,0.0346,0.0346,0.0324,0.0323,0.0323,0.0305,0.0305,0.0305,0.0305,0.0264,0.0263,0.0262,0,0,0,0,0,0,0,0,0,0,0,0,0,0.0338,0.035,0.0346,0.0335,0.0334,0.0324,0.0323,0.0322,0.0305,0.0305,0.0305,0.0305,0.0265,0.0263,0.0261,0.0251,0,0,0.0257,0.0256,0,0,0,0,0,0,0,0,0.0339,0.0338,0.0337,0.0336,0.0335,0.0319,0.031,0.0298,0.0305,0.0314,0.0305,0.0305,0.0282,0.0279,0.0272,0.025,0.0248,0.0256,0.0255,0.0255,0.0254,0,0,0,0,0,0,0,0.034,0.0339,0.0335,0.0337,0.0336,0.0324,0.0323,0.0307,0.0296,0.0313,0.0312,0.0313,0.0281,0.0274,0.0271,0.0247,0.0256,0.0255,0.0254,0.0253,0.0199,0.0199,0,0,0,0,0,0,0.0348,0.034,0.0336,0.0334,0.0339,0.0325,0.0322,0.0322,0.0297,0.0294,0.0313,0.0312,0.0276,0.0273,0.0269,0.0255,0.0255,0.0253,0.0252,0.02,0.0199,0.0199,0,0,0,0,0,0,0.0348,0.0348,0.0337,0.0338,0.0336,0.0325,0.0324,0.0322,0.0322,0.0297,0.0293,0.0317,0.0276,0.0272,0.0253,0.0254,0.0252,0.0251,0.02,0.0199,0.0199,0.0228,0,0,0,0,0,0,0.0348,0.0348,0.0351,0.0339,0.0336,0.0332,0.0325,0.0322,0.0323,0.0322,0.03,0.0295,0.0276,0.0256,0.0251,0.0251,0.025,0.0201,0.02,0.0199,0.0227,0.0228,0.0229,0,0,0,0,0,0.0348,0.0345,0.0351,0.0351,0.0341,0.0333,0.033,0.0321,0.0324,0.0322,0.0303,0.0296,0.0247,0.0254,0.0249,0.0249,0.0201,0.02,0.0199,0.0227,0.0228,0.0229,0,0,0,0,0,0,0.0348,0.0343,0.0349,0.0346,0.0345,0.033,0.0333,0.0328,0.0313,0.0317,0.0292,0.0286,0.0268,0.0253,0.0261,0.0229,0.0222,0.022,0.0245,0.0246,0.0246,0.027,0.0248,0,0,0,0,0,0.0352,0.0349,0.0347,0.0347,0.0354,0.0349,0.0346,0.0341,0.0327,0.0322,0.0306,0.0285,0.0259,0.025,0.0226,0.0213,0.0198,0.0208,0.0208,0.0209,0.0224,0.0197,0.0197,0.0195,0.0195,0.0195,0,0,0.0353,0.035,0.035,0.0347,0.0352,0.0362,0.0347,0.035,0.0353,0.032,0.032,0.0289,0.0255,0.0234,0.0225,0.0224,0.0198,0.0208,0.0209,0.0223,0.0196,0.0196,0.0197,0.0194,0.0195,0.0195,0,0,0.0362,0.0357,0.0369,0.0364,0.0372,0.0372,0.0378,0.0373,0.0369,0.0359,0.0332,0.0295,0.0275,0.0237,0.0218,0.0207,0.0201,0.021,0.0236,0.0209,0.021,0.021,0.0178,0.0175,0.0212,0.0212,0.0212,0,0.037,0.0386,0.0371,0.0379,0.0391,0.0384,0.041,0.0395,0.038,0.0378,0.0365,0.0305,0.027,0.0232,0.0229,0.0208,0.0205,0.0237,0.0212,0.0212,0.0212,0.0179,0.0175,0.0213,0.0213,0.0213,0.0213,0,0.0395,0.0405,0.0413,0.0431,0.0432,0.045,0.0441,0.044,0.0439,0.0421,0.0387,0.0324,0.0294,0.0266,0.0249,0.0227,0.0228,0.0216,0.0215,0.0214,0.0179,0.0175,0.0215,0.0214,0.0214,0.0214,0,0,0.0437,0.0437,0.0444,0.0464,0.0467,0.0476,0.0482,0.0493,0.0499,0.0454,0.0454,0.0376,0.0347,0.0323,0.0278,0.0247,0.0225,0.0249,0.0247,0.0227,0.0181,0.0148,0.014,0.0227,0.0227,0.0227,0.0153,0,0.0483,0.0517,0.0502,0.0543,0.0574,0.0556,0.0567,0.0556,0.0537,0.0525,0.0445,0.0426,0.0367,0.0359,0.0313,0.0249,0.022,0.0247,0.0177,0.0175,0.0154,0.0136,0.0226,0.0149,0.0149,0.0148,0.0147,0,0.0535,0.0553,0.0609,0.0623,0.0637,0.0654,0.068,0.0684,0.0644,0.0627,0.0573,0.0518,0.0447,0.0412,0.029,0.0322,0.027,0.021,0.0206,0.0168,0.0135,0.0152,0.014,0.014,0.0141,0.0141,0.0142,0,0.0603,0.0629,0.0687,0.069,0.0703,0.0728,0.0747,0.0726,0.0739,0.0706,0.0697,0.0596,0.0555,0.0463,0.0324,0.0331,0.0196,0.0182,0.0093,0.0089,0.0131,0.0131,0.0122,0.0122,0.0122,0.0122,0.0122,0,0.0659,0.0699,0.0727,0.075,0.0817,0.0806,0.0866,0.0851,0.0847,0.0855,0.0768,0.0729,0.0577,0.0467,0.0353,0.0197,0.0212,0.0098,0.0069,0.0141,0.0144,0.0127,0.0128,0.0119,0.012,0.012,0.0121,0,0.0707,0.0732,0.0789,0.0827,0.0851,0.0901,0.0953,0.0979,0.0969,0.0974,0.0975,0.0844,0.0698,0.0519,0.035,0.0232,0.009,0.0042,0.0124,0.0101,-0.0003,0.0001,-0.0062,-0.0064,-0.0066,-0.0067,-0.0068,0,0.0724,0.0769,0.0845,0.0889,0.0912,0.0988,0.1038,0.1055,0.1072,0.1027,0.1021,0.0893,0.0784,0.0495,0.0323,0.0088,0.0059,-0.0017,-0.0006,0.0,-0.0021,-0.0015,-0.001,-0.007,-0.0071,-0.0071,-0.0072,0,0.0752,0.0797,0.0841,0.0935,0.1005,0.1075,0.1137,0.1159,0.1167,0.1157,0.1048,0.0888,0.0712,0.0485,0.0301,0.0135,0.0023,-0.0033,-0.0031,-0.0021,-0.001,-0.0029,-0.0021,-0.0077,-0.0076,-0.0075,-0.0075,0,0.0771,0.081,0.0883,0.096,0.1052,0.1117,0.1156,0.1163,0.1184,0.1123,0.1087,0.0891,0.0783,0.051,0.0337,0.0165,0.0126,0.0068,0.0064,0.0068,0.012,0.0154,0.0115,0,0,0,0,0,0.0773,0.0815,0.0892,0.0974,0.1064,0.1117,0.1192,0.122,0.123,0.1157,0.1121,0.0953,0.0668,0.0541,0.0365,0.0318,0.0105,0.0106,0.0039,-0.0105,-0.0099,-0.0064,0,0,0,0,0,0,0.077,0.0843,0.0884,0.0972,0.1028,0.1125,0.1179,0.1189,0.1144,0.1121,0.0973,0.0897,0.0629,0.0767,0.0356,0.0304,0.0234,-0.0021,-0.0025,-0.0109,-0.0103,-0.0098,-0.006,0,0,0,0,0]}]]